[TLELIST] Archives

 

[TLELIST] Current TLEs

March 2nd 2025 PST

HST 1 20580U 90037B 25060.35897375 .00010740 00000-0 43030-3 0 9999 2 20580 28.4687 54.9158 0001925 331.2115 28.8372 15.23373042716214 ISS (ZARYA) 1 25544U 98067A 25061.36530999 .00013429 00000-0 24568-3 0 9995 2 25544 51.6361 116.1146 0006153 335.3707 125.6952 15.49660855498591 CXO 1 25867U 99040B 25063.66024806 .00000945 00000-0 00000-0 0 9996 2 25867 47.1628 135.0530 8579164 307.4424 0.5388 0.37810766 15546 ...Continue Reading

[TLELIST] Current TLEs

March 1st 2025 PST

HST 1 20580U 90037B 25059.70384719 .00012190 00000-0 48962-3 0 9999 2 20580 28.4686 59.3431 0001890 323.2435 36.8029 15.23359919716117 ISS (ZARYA) 1 25544U 98067A 25059.67051016 .00022730 00000-0 41057-3 0 9991 2 25544 51.6351 124.5129 0006179 327.2629 32.7976 15.49603721498330 CXO 1 25867U 99040B 25061.01661571 .00001051 00000-0 00000-0 0 9998 2 25867 47.0564 135.2826 8580496 307.3136 0.7130 0.37805607 15548 ...Continue Reading

[TLELIST] Current TLEs

February 28th 2025 PST

HST 1 20580U 90037B 25059.11422791 .00013593 00000-0 54709-3 0 9991 2 20580 28.4685 63.3279 0001893 315.9564 44.0879 15.23346699716288 ISS (ZARYA) 1 25544U 98067A 25058.70314544 .00027564 00000-0 49658-3 0 9997 2 25544 51.6356 129.3030 0006198 323.7914 36.2655 15.49561991498186 CXO 1 25867U 99040B 25061.01661571 .00001051 00000-0 00000-0 0 9998 2 25867 47.0564 135.2826 8580496 307.3136 0.7130 0.37805607 15548 ...Continue Reading

[TLELIST] Current TLEs

February 28th 2025 PST

HST 1 20580U 90037B 25059.11422791 .00013593 00000-0 54709-3 0 9991 2 20580 28.4685 63.3279 0001893 315.9564 44.0879 15.23346699716288 ISS (ZARYA) 1 25544U 98067A 25058.70314544 .00027564 00000-0 49658-3 0 9997 2 25544 51.6356 129.3030 0006198 323.7914 36.2655 15.49561991498186 CXO 1 25867U 99040B 25061.01661571 .00001051 00000-0 00000-0 0 9998 2 25867 47.0564 135.2826 8580496 307.3136 0.7130 0.37805607 15548 ...Continue Reading

[TLELIST] Current TLEs

February 27th 2025 PST

HST 1 20580U 90037B 25057.73842753 .00012997 00000-0 52330-3 0 9996 2 20580 28.4685 72.6255 0001884 298.4028 61.6376 15.23311316715818 ISS (ZARYA) 1 25544U 98067A 25057.69551956 .00051272 00000-0 91556-3 0 9991 2 25544 51.6387 134.2889 0005831 315.8203 179.6729 15.49515680498024 CXO 1 25867U 99040B 25058.37201156 .00001150 00000-0 00000+0 0 9991 2 25867 46.9769 135.4700 8580484 307.2371 0.6391 0.37800227 26681 ...Continue Reading

[TLELIST] Current TLEs

February 26th 2025 PST

HST 1 20580U 90037B 25056.75569401 .00013022 00000-0 52472-3 0 9990 2 20580 28.4684 79.2666 0001905 286.0547 73.9837 15.23286141715667 ISS (ZARYA) 1 25544U 98067A 25057.23680487 .00026685 00000-0 48254-3 0 9990 2 25544 51.6375 136.5555 0006009 318.1256 136.8866 15.49475785497957 CXO 1 25867U 99040B 25058.37201156 .00001150 00000-0 00000+0 0 9991 2 25867 46.9769 135.4700 8580484 307.2371 0.6391 0.37800227 26681 ...Continue Reading

[TLELIST] Current TLEs

February 25th 2025 PST

HST 1 20580U 90037B 25055.77294442 .00012371 00000-0 49850-3 0 9993 2 20580 28.4684 85.9072 0001933 273.9256 86.1117 15.23258958715511 ISS (ZARYA) 1 25544U 98067A 25056.39790021 .00026003 00000-0 47123-3 0 9990 2 25544 51.6375 140.7106 0005896 314.3477 138.1347 15.49428638497822 CXO 1 25867U 99040B 25058.37201156 .00001150 00000-0 00000+0 0 9991 2 25867 46.9769 135.4700 8580484 307.2371 0.6391 0.37800227 26681 ...Continue Reading

[TLELIST] Current TLEs

February 25th 2025 PST

HST 1 20580U 90037B 25055.77294442 .00012371 00000-0 49850-3 0 9993 2 20580 28.4684 85.9072 0001933 273.9256 86.1117 15.23258958715511 ISS (ZARYA) 1 25544U 98067A 25056.39790021 .00026003 00000-0 47123-3 0 9990 2 25544 51.6375 140.7106 0005896 314.3477 138.1347 15.49428638497822 CXO 1 25867U 99040B 25058.37201156 .00001150 00000-0 00000+0 0 9991 2 25867 46.9769 135.4700 8580484 307.2371 0.6391 0.37800227 26681 ...Continue Reading

[TLELIST] Current TLEs

February 24th 2025 PST

HST 1 20580U 90037B 25054.79017774 .00011100 00000-0 44684-3 0 9994 2 20580 28.4683 92.5477 0001985 261.9234 98.1135 15.23234123715367 ISS (ZARYA) 1 25544U 98067A 25055.22036441 .00025978 00000-0 47180-3 0 9993 2 25544 51.6356 146.5432 0006045 308.3295 51.7150 15.49366463497644 CXO 1 25867U 99040B 25055.72788827 .00001130 00000-0 00000+0 0 9990 2 25867 46.9206 135.6033 8583641 307.2110 0.5921 0.37801725 26678 ...Continue Reading

[TLELIST] Current TLEs

February 23rd 2025 PST

HST 1 20580U 90037B 25053.80739604 .00010551 00000-0 42462-3 0 9999 2 20580 28.4681 99.1881 0002035 249.8656 110.1719 15.23210957715213 ISS (ZARYA) 1 25544U 98067A 25053.73682840 .00022830 00000-0 41694-3 0 9995 2 25544 51.6354 153.8867 0006032 301.7330 58.3070 15.49287303497412 CXO 1 25867U 99040B 25055.72788827 .00001130 00000-0 00000+0 0 9990 2 25867 46.9206 135.6033 8583641 307.2110 0.5921 0.37801725 26678 ...Continue Reading
  • This mailing list is a public mailing list - anyone may join or leave, at any time.
  • This mailing list is announce-only.

International Space Station (ISS) / Hubble Space Telescope (HST) / Chandra X-Ray Observatory Orbital Data via EMAIL

Privacy Policy:

Private list